This demonstration page uses our WeatherBlox Daily Observations layout. Learn more.

40.92945, -100.16068

Hourly Observations for March 17, 2015

Temp ( °F °C ) Dew Point ( °F °C ) Humidity (%) Winds ( mph kmh ) Pressure ( in mb ) Visibility ( mi km ) Precip ( " mm )
12:15 am 00:15 Clear 42 5.4 32 0 68 68 NNE 22 35 30.33 1027 10 16.0934 N/A
12:35 am 00:35 Clear 40 4.5 32 -0.1 72 72 NNE 21 33 30.36 1028 10 16.0934 N/A
12:55 am 00:55 Clear 39 3.8 31 -0.8 72 72 NNE 23 37 30.36 1028 10 16.0934 N/A
1:15 am 01:15 Clear 38 3.1 30 -1 75 75 NNE 20 31 30.42 1030 10 16.0934 N/A
1:35 am 01:35 Clear 37 2.5 29 -1.8 74 74 NNE 25 41 30.45 1031 10 16.0934 N/A
1:55 am 01:55 Clear 36 2 27 -2.6 72 72 NNE 24 39 30.45 1031 10 16.0934 N/A
2:15 am 02:15 Clear 35 1.7 24 -4.2 65 65 N 21 33 30.48 1032 10 16.0934 N/A
2:35 am 02:35 Clear 34 1.3 23 -4.9 64 64 N 20 31 30.5 1033 10 16.0934 N/A
2:55 am 02:55 Clear 34 1.1 22 -5.6 61 61 N 16 26 30.5 1033 10 16.0934 N/A
3:15 am 03:15 Clear 34 1 22 -5.6 62 62 N 17 28 30.5 1033 10 16.0934 N/A
3:35 am 03:35 Clear 33 0.6 22 -5.5 64 64 N 17 28 30.5 1033 10 16.0934 N/A
3:55 am 03:55 Clear 33 0.5 21 -6 62 62 N 18 30 30.5 1033 10 16.0934 N/A
4:15 am 04:15 Clear 32 0.2 21 -6 63 63 N 20 31 30.5 1033 10 16.0934 N/A
4:35 am 04:35 Clear 32 0.1 20 -6.8 60 60 N 20 31 30.5 1033 10 16.0934 N/A
4:55 am 04:55 Clear 32 0 20 -6.6 62 62 N 15 24 30.5 1033 10 16.0934 N/A
5:15 am 05:15 Clear 32 0 22 -5.3 68 68 N 17 28 30.53 1034 10 16.0934 N/A
5:35 am 05:35 Clear 32 0 21 -6.1 64 64 N 16 26 30.53 1034 10 16.0934 N/A
5:55 am 05:55 Clear 31 -0.3 20 -6.9 61 61 N 16 26 30.53 1034 10 16.0934 N/A
6:15 am 06:15 Clear 31 -0.6 19 -7.5 60 60 N 13 20 30.56 1035 10 16.0934 N/A
6:35 am 06:35 Clear 30 -0.9 18 -7.9 59 59 N 13 20 30.56 1035 10 16.0934 N/A
6:55 am 06:55 Clear 30 -1.1 18 -8 60 60 N 10 17 30.56 1035 10 16.0934 N/A
7:15 am 07:15 Clear 30 -1.2 17 -8.3 59 59 N 9 15 30.59 1036 10 16.0934 N/A
7:35 am 07:35 Clear 29 -1.5 17 -8.6 59 59 N 10 17 30.59 1036 10 16.0934 N/A
7:55 am 07:55 Sunny 29 -1.5 16 -9 57 57 N 9 15 30.59 1036 10 16.0934 N/A
8:15 am 08:15 Sunny 29 -1.5 16 -9.1 57 57 N 8 13 30.65 1038 10 16.0934 N/A
8:35 am 08:35 Sunny 30 -1.1 16 -9 55 55 N 8 13 30.65 1038 10 16.0934 N/A
8:55 am 08:55 Sunny 32 -0.2 15 -9.2 51 51 N 9 15 30.62 1037 10 16.0934 N/A
9:15 am 09:15 Sunny 33 0.5 15 -9.4 48 48 N 15 24 30.62 1037 10 16.0934 N/A
9:35 am 09:35 Sunny 34 1 11 -11.8 38 38 NNE 15 24 30.62 1037 10 16.0934 N/A
9:55 am 09:55 Sunny 34 1.3 8 -13.5 33 33 NNE 20 31 30.62 1037 10 16.0934 N/A
10:15 am 10:15 Sunny 35 1.8 6 -14.5 29 29 NE 17 28 30.62 1037 10 16.0934 N/A
10:35 am 10:35 Sunny 37 2.6 4 -15.5 25 25 NE 18 30 30.59 1036 10 16.0934 N/A
10:55 am 10:55 Sunny 38 3.1 1 -17 21 21 NE 16 26 30.59 1036 10 16.0934 N/A
11:15 am 11:15 Sunny 39 3.7 0 -17.9 19 19 ENE 16 26 30.59 1036 10 16.0934 N/A
11:35 am 11:35 Sunny 40 4.3 -2 -18.8 17 17 ENE 18 30 30.59 1036 10 16.0934 N/A
11:55 am 11:55 Sunny 40 4.6 -1 -18.6 17 17 ENE 14 22 30.59 1036 10 16.0934 N/A
12:15 pm 12:15 Sunny 41 5.1 -2 -18.7 16 16 NE 16 26 30.59 1036 10 16.0934 N/A
12:35 pm 12:35 Sunny 42 5.7 -3 -19.6 14 14 ENE 16 26 30.53 1034 10 16.0934 N/A
12:55 pm 12:55 Sunny 42 5.8 -1 -18.5 16 16 ENE 10 17 30.53 1034 10 16.0934 N/A
1:15 pm 13:15 Sunny 44 6.4 -2 -18.8 15 15 ENE 9 15 30.53 1034 10 16.0934 N/A
1:35 pm 13:35 Sunny 45 7.1 -1 -18.5 14 14 NE 14 22 30.5 1033 10 16.0934 N/A
1:55 pm 13:55 Sunny 45 7.1 -1 -18.1 15 15 NE 8 13 30.5 1033 10 16.0934 N/A
2:15 pm 14:15 Sunny 46 7.5 1 -17.2 15 15 E 12 19 30.45 1031 10 16.0934 N/A
2:35 pm 14:35 Sunny 46 7.8 2 -16.6 16 16 ENE 12 19 30.45 1031 10 16.0934 N/A
2:55 pm 14:55 Sunny 47 8.2 2 -16.5 16 16 ENE 9 15 30.42 1030 10 16.0934 N/A
3:15 pm 15:15 Sunny 48 9 2 -16.7 15 15 ENE 8 13 30.42 1030 10 16.0934 N/A
3:35 pm 15:35 Sunny 49 9.4 1 -17.2 14 14 ESE 8 13 30.42 1030 10 16.0934 N/A
3:55 pm 15:55 Sunny 49 9.4 1 -17.5 13 13 E 13 20 30.42 1030 10 16.0934 N/A
4:15 pm 16:15 Sunny 50 10.1 -1 -18.3 12 12 E 13 20 30.36 1028 10 16.0934 N/A
4:35 pm 16:35 Sunny 50 9.8 -1 -18.6 12 12 ENE 13 20 30.36 1028 10 16.0934 N/A
4:55 pm 16:55 Sunny 50 10 -2 -18.9 11 11 ESE 12 19 30.36 1028 10 16.0934 N/A
5:15 pm 17:15 Sunny 50 10 -2 -18.9 11 11 E 13 20 30.33 1027 10 16.0934 N/A
5:35 pm 17:35 Sunny 50 10 -1 -18.6 12 12 E 8 13 30.33 1027 10 16.0934 N/A
5:55 pm 17:55 Sunny 50 9.8 -2 -18.9 11 11 E 16 26 30.33 1027 10 16.0934 N/A
6:15 pm 18:15 Sunny 50 9.8 -2 -18.7 12 12 E 12 19 30.3 1026 10 16.0934 N/A
6:35 pm 18:35 Sunny 49 9.4 -1 -18.3 12 12 E 13 20 30.33 1027 10 16.0934 N/A
6:55 pm 18:55 Sunny 48 8.9 -1 -18.5 13 13 E 13 20 30.33 1027 10 16.0934 N/A
7:15 pm 19:15 Sunny 47 8.2 -1 -18.1 14 14 E 15 24 30.3 1026 10 16.0934 N/A
7:35 pm 19:35 Sunny 46 7.6 -1 -18.4 14 14 E 13 20 30.3 1026 10 16.0934 N/A
7:55 pm 19:55 Clear 44 6.6 -1 -18.3 15 15 E 10 17 30.3 1026 10 16.0934 N/A
8:15 pm 20:15 Clear 43 6.3 0 -17.7 16 16 E 9 15 30.36 1028 10 16.0934 N/A
8:35 pm 20:35 Clear 42 5.6 1 -17 18 18 E 9 15 30.36 1028 10 16.0934 N/A
8:55 pm 20:55 Clear 41 4.8 2 -16.6 20 20 E 8 13 30.36 1028 10 16.0934 N/A
9:15 pm 21:15 Clear 39 3.9 3 -16.2 22 22 E 7 11 30.36 1028 10 16.0934 N/A
9:35 pm 21:35 Clear 39 3.9 2 -16.5 21 21 E 8 13 30.36 1028 10 16.0934 N/A
9:55 pm 21:55 Clear 37 2.7 4 -15.7 25 25 E 8 13 30.39 1029 10 16.0934 N/A
10:15 pm 22:15 Clear 38 3.6 3 -15.9 23 23 ESE 7 11 30.36 1028 10 16.0934 N/A
10:35 pm 22:35 Clear 38 3.5 4 -15.6 23 23 ESE 7 11 30.36 1028 10 16.0934 N/A
10:55 pm 22:55 Clear 37 3 5 -15.1 25 25 ESE 6 9 30.39 1029 10 16.0934 N/A
11:15 pm 23:15 Clear 36 2.3 6 -14.7 27 27 E 6 9 30.39 1029 10 16.0934 N/A
11:35 pm 23:35 Clear 35 1.6 6 -14.2 30 30 ESE 6 9 30.36 1028 10 16.0934 N/A
11:55 pm 23:55 Clear 35 1.7 7 -13.9 31 31 ESE 6 9 30.36 1028 10 16.0934 N/A

Powered by AerisWeather